Location: *
(51.1248°S, 108.4023°W)
Time: 04:36:02
(UTC+00:00)

USA 238 - Visible Passes

Search period start: 17 October 2021 00:00
Search period end: 27 October 2021 00:00
Orbit: 980 x 1232 km, 63.4° (Epoch: 15 October)

Date Brightness Start Highest point End Pass type
(mag) Time Alt. Az. Time Alt. Az. Time Alt. Az.
17 Oct 5.2 09:44:51 12° N 09:50:57 33° ENE 09:57:19 10° SE visible
18 Oct 5.6 09:01:44 12° NNE 09:06:32 22° ENE 09:11:54 10° ESE visible
18 Oct 4.0 10:49:11 11° NW 10:56:37 78° NE 11:03:53 10° SE visible
19 Oct 6.0 08:18:37 10° NE 08:22:15 14° ENE 08:25:48 10° ESE visible
19 Oct 4.3 10:06:00 17° NNW 10:11:52 57° NE 10:19:00 10° SE visible
20 Oct 4.8 09:22:46 21° N 09:27:15 40° ENE 09:33:59 10° SE visible
20 Oct 4.1 11:10:26 10° WNW 11:18:01 69° SW 11:25:14 10° SE visible
21 Oct 5.2 08:39:28 21° NNE 08:42:46 28° ENE 08:48:46 10° ESE visible
21 Oct 3.9 10:26:54 17° NW 10:33:06 89° SW 10:40:24 10° SE visible
22 Oct 5.6 07:56:07 16° NE 07:58:23 19° ENE 08:03:11 10° ESE visible
22 Oct 4.0 09:43:33 25° NNW 09:48:17 69° NE 09:55:32 10° SE visible
23 Oct 5.9 07:12:44 11° ENE 07:14:09 11° ENE 07:16:19 10° E visible
23 Oct 4.4 09:00:09 30° N 09:03:36 50° ENE 09:10:36 10° SE visible
23 Oct 4.2 10:47:35 12° WNW 10:54:37 59° SW 11:01:44 10° SE visible
24 Oct 4.8 08:16:42 29° NNE 08:19:02 35° ENE 08:25:31 10° SE visible
24 Oct 4.0 10:04:08 21° NW 10:09:38 76° SW 10:16:53 10° SE visible
25 Oct 5.2 07:33:13 23° NE 07:34:35 24° ENE 07:40:12 10° ESE visible
25 Oct 3.9 09:20:38 30° NW 09:24:45 83° NE 09:32:03 10° SE visible
25 Oct 4.7 11:09:20 10° W 11:16:25 42° SSW 11:23:08 10° SE visible
26 Oct 5.6 06:49:41 15° ENE 06:50:16 16° ENE 06:54:18 10° ESE visible
26 Oct 4.1 08:37:06 38° N 08:39:59 61° NE 08:47:09 10° SE visible
26 Oct 4.4 10:24:31 13° WNW 10:31:15 51° SSW 10:38:14 10° SE visible
